This demonstration page uses our WeatherBlox Daily Observations layout. Learn more.

Left ArrowRight Arrow

38.20091, -84.87328

Hourly Observations for June 27, 2021

Temp ( °F °C ) Dew Point ( °F °C ) Humidity (%) Winds ( mph kmh ) Pressure ( in mb ) Visibility ( mi km ) Precip ( " mm )
12:53 am 00:53 Clear 76 24.4 65 18.3 69 69 S 8 13 30.04 1017 10 16 0.00 0.00
1:53 am 01:53 Clear 74 23.3 65 18.3 74 74 S 6 9 30.05 1018 10 16 0.00 0.00
2:53 am 02:53 Clear 73 22.8 65 18.3 76 76 SSW 6 9 30.05 1018 10 16 0.00 0.00
3:53 am 03:53 Clear 71 21.7 65 18.3 81 81 S 3 6 30.03 1017 10 16 0.00 0.00
4:53 am 04:53 Clear 70 21.1 65 18.3 84 84 SSW 5 7 30.04 1017 10 16 0.00 0.00
5:53 am 05:53 Clear 71 21.7 65 18.3 81 81 S 6 9 30.04 1017 10 16 0.00 0.00
6:53 am 06:53 Sunny 71 21.7 66 18.9 84 84 SSW 7 11 30.06 1018 10 16 0.00 0.00
7:53 am 07:53 Sunny 75 23.9 67 19.4 76 76 SSW 10 17 30.06 1018 10 16 0.00 0.00
8:53 am 08:53 Sunny 78 25.6 69 20.6 74 74 SW 13 20 30.10 1019 10 16 0.00 0.00
9:53 am 09:53 Sunny 81 27.2 70 21.1 69 69 SSW 13 20 30.10 1019 10 16 0.00 0.00
10:53 am 10:53 Mostly Sunny 84 28.9 70 21.1 63 63 SW 13 20 30.10 1019 10 16 0.00 0.00
11:53 am 11:53 Mostly Sunny 86 30 70 21.1 59 59 SSW 9 15 30.11 1020 10 16 0.00 0.00
12:53 pm 12:53 Mostly Cloudy 87 30.6 70 21.1 57 57 SW 13 20 30.11 1020 10 16 0.00 0.00
1:53 pm 13:53 Partly Cloudy 88 31.1 70 21.1 55 55 SSW 12 19 30.09 1019 10 16 0.00 0.00
2:53 pm 14:53 Mostly Sunny 89 31.7 69 20.6 52 52 SSW 10 17 30.08 1019 10 16 0.00 0.00
3:53 pm 15:53 Partly Cloudy 90 32.2 69 20.6 50 50 SSW 9 15 30.06 1018 10 16 0.00 0.00
4:53 pm 16:53 Sunny 90 32.2 68 20 48 48 S 13 20 30.06 1018 10 16 0.00 0.00
5:53 pm 17:53 Sunny 90 32.2 67 19.4 47 47 SSW 9 15 30.05 1018 10 16 0.00 0.00
6:53 pm 18:53 Sunny 89 31.7 66 18.9 47 47 SSW 9 15 30.04 1017 10 16 0.00 0.00
7:53 pm 19:53 Sunny 86 30 68 20 55 55 SSE 12 19 30.05 1018 10 16 0.00 0.00
8:53 pm 20:53 Sunny 83 28.3 68 20 61 61 S 7 11 30.06 1018 10 16 0.00 0.00
9:53 pm 21:53 Clear 77 25 68 20 74 74 S 5 7 30.09 1019 10 16 0.00 0.00
10:53 pm 22:53 Clear 78 25.6 68 20 71 71 SSE 3 6 30.10 1019 10 16 0.00 0.00
11:53 pm 23:53 Clear 74 23.3 68 20 82 82 Calm 30.11 1020 10 16 0.00 0.00

Powered by AerisWeather